Hourly Weather Berezanka

Today, 21 September, Monday

Time Temperature Precipitation Wind Pressure Humidity
00:00 +15°C° 0 mm 4 mps 765 mmHg 42%
01:00 +14°C° 0 mm 4 mps 765 mmHg 41%
02:00 +14°C° 0 mm 4 mps 765 mmHg 43%
03:00 +13°C° 0 mm 4 mps 765 mmHg 44%
04:00 +13°C° 0 mm 4 mps 765 mmHg 44%
05:00 +12°C° 0 mm 3 mps 765 mmHg 44%
06:00 +14°C° 0 mm 3 mps 765 mmHg 43%
07:00 +16°C° 0 mm 3 mps 765 mmHg 42%
08:00 +17°C° 0 mm 3 mps 766 mmHg 39%
09:00 +19°C° 0 mm 3 mps 766 mmHg 34%
10:00 +21°C° 0 mm 3 mps 766 mmHg 30%
11:00 +22°C° 0 mm 3 mps 766 mmHg 26%
12:00 +24°C° 0 mm 3 mps 765 mmHg 24%
13:00 +25°C° 0 mm 2 mps 765 mmHg 23%
14:00 +25°C° 0 mm 2 mps 765 mmHg 23%
15:00 +25°C° 0 mm 2 mps 765 mmHg 24%
16:00 +25°C° 0 mm 2 mps 765 mmHg 25%
17:00 +24°C° 0 mm 1 mps 764 mmHg 26%
18:00 +23°C° 0 mm 2 mps 765 mmHg 28%
19:00 +20°C° 0 mm 2 mps 765 mmHg 30%
20:00 +18°C° 0 mm 2 mps 765 mmHg 32%
21:00 +18°C° 0 mm 2 mps 765 mmHg 33%
22:00 +17°C° 0 mm 3 mps 765 mmHg 34%
23:00 +17°C° 0 mm 3 mps 765 mmHg 34%

Tomorrow, 22 September, Tuesday

Time Temperature Precipitation Wind Pressure Humidity
00:00 +16°C° 0 mm 3 mps 765 mmHg 38%
01:00 +16°C° 0 mm 3 mps 765 mmHg 41%
02:00 +15°C° 0 mm 2 mps 765 mmHg 45%
03:00 +14°C° 0 mm 3 mps 765 mmHg 46%
04:00 +14°C° 0 mm 3 mps 765 mmHg 46%
05:00 +13°C° 0 mm 3 mps 765 mmHg 46%
06:00 +16°C° 0 mm 3 mps 765 mmHg 42%
07:00 +17°C° 0 mm 3 mps 766 mmHg 37%
08:00 +18°C° 0 mm 3 mps 766 mmHg 33%
09:00 +20°C° 0 mm 3 mps 766 mmHg 30%
10:00 +22°C° 0 mm 3 mps 766 mmHg 27%
11:00 +25°C° 0 mm 3 mps 765 mmHg 23%
12:00 +25°C° 0 mm 3 mps 765 mmHg 23%
13:00 +26°C° 0 mm 3 mps 765 mmHg 22%
14:00 +26°C° 0 mm 2 mps 764 mmHg 21%
15:00 +25°C° 0 mm 2 mps 764 mmHg 23%
16:00 +25°C° 0 mm 2 mps 764 mmHg 24%
17:00 +24°C° 0 mm 2 mps 763 mmHg 25%
18:00 +21°C° 0 mm 2 mps 763 mmHg 28%
19:00 +21°C° 0 mm 1 mps 763 mmHg 31%
20:00 +17°C° 0 mm 0 mps 764 mmHg 35%
21:00 +18°C° 0 mm 1 mps 763 mmHg 36%
22:00 +18°C° 0 mm 1 mps 763 mmHg 38%
23:00 +16°C° 0 mm 1 mps 763 mmHg 39%

Day after tomorrow, 23 September, Wednesday

Time Temperature Precipitation Wind Pressure Humidity
00:00 +16°C° 0 mm 1 mps 763 mmHg 39%
01:00 +16°C° 0 mm 1 mps 763 mmHg 40%
02:00 +16°C° 0 mm 2 mps 763 mmHg 41%
03:00 +15°C° 0 mm 2 mps 763 mmHg 43%
04:00 +14°C° 0 mm 3 mps 762 mmHg 45%
05:00 +13°C° 0 mm 3 mps 762 mmHg 47%
06:00 +14°C° 0 mm 3 mps 762 mmHg 44%
07:00 +17°C° 0 mm 3 mps 762 mmHg 42%
08:00 +18°C° 0 mm 4 mps 762 mmHg 39%
09:00 +20°C° 0 mm 4 mps 762 mmHg 37%
10:00 +22°C° 0 mm 4 mps 761 mmHg 35%
11:00 +25°C° 0 mm 4 mps 761 mmHg 34%
12:00 +26°C° 0 mm 4 mps 761 mmHg 34%
13:00 +26°C° 0 mm 4 mps 760 mmHg 35%
14:00 +27°C° 0 mm 3 mps 760 mmHg 36%
15:00 +26°C° 0 mm 3 mps 760 mmHg 40%
16:00 +25°C° 0 mm 3 mps 759 mmHg 44%
17:00 +24°C° 0 mm 2 mps 759 mmHg 49%
18:00 +23°C° 0 mm 2 mps 759 mmHg 56%
19:00 +20°C° 0 mm 2 mps 759 mmHg 64%
20:00 +19°C° 0 mm 1 mps 759 mmHg 72%
21:00 +19°C° 0 mm 1 mps 759 mmHg 73%
22:00 +19°C° 0 mm 1 mps 759 mmHg 74%
23:00 +19°C° 0 mm 1 mps 759 mmHg 74%

24 September, Thursday

Time Temperature Precipitation Wind Pressure Humidity
00:00 +17°C° 0 mm 2 mps 759 mmHg 75%
01:00 +17°C° 0 mm 2 mps 759 mmHg 76%
02:00 +16°C° 0 mm 2 mps 759 mmHg 77%
03:00 +16°C° 0 mm 2 mps 759 mmHg 76%
04:00 +14°C° 0 mm 3 mps 759 mmHg 76%
05:00 +14°C° 0 mm 3 mps 759 mmHg 75%
06:00 +16°C° 0 mm 3 mps 759 mmHg 68%
07:00 +18°C° 0 mm 3 mps 759 mmHg 61%
08:00 +19°C° 0 mm 3 mps 759 mmHg 53%
09:00 +21°C° 0 mm 3 mps 759 mmHg 48%
10:00 +24°C° 0 mm 3 mps 758 mmHg 42%
11:00 +26°C° 0 mm 3 mps 758 mmHg 37%
12:00 +27°C° 0 mm 3 mps 758 mmHg 36%
13:00 +28°C° 0 mm 3 mps 758 mmHg 34%
14:00 +28°C° 0 mm 3 mps 758 mmHg 33%
15:00 +27°C° 0 mm 3 mps 758 mmHg 36%
16:00 +27°C° 0 mm 3 mps 757 mmHg 38%
17:00 +26°C° 0 mm 3 mps 757 mmHg 41%
18:00 +24°C° 0 mm 2 mps 757 mmHg 46%
19:00 +23°C° 0 mm 1 mps 758 mmHg 50%
20:00 +21°C° 0 mm 1 mps 758 mmHg 55%
21:00 +21°C° 0 mm 1 mps 758 mmHg 57%
22:00 +21°C° 0 mm 1 mps 758 mmHg 58%
23:00 +21°C° 0 mm 1 mps 758 mmHg 60%

25 September, Friday

Time Temperature Precipitation Wind Pressure Humidity
00:00 +20°C° 0 mm 1 mps 758 mmHg 63%
01:00 +20°C° 0 mm 1 mps 758 mmHg 65%
02:00 +17°C° 0 mm 0 mps 758 mmHg 68%
03:00 +19°C° 0 mm 1 mps 758 mmHg 69%
04:00 +17°C° 0 mm 2 mps 758 mmHg 70%
05:00 +17°C° 0 mm 2 mps 758 mmHg 72%
06:00 +18°C° 0 mm 2 mps 758 mmHg 67%
07:00 +19°C° 0 mm 3 mps 758 mmHg 62%
08:00 +21°C° 0 mm 3 mps 758 mmHg 57%
09:00 +22°C° 0 mm 3 mps 758 mmHg 51%
10:00 +25°C° 0 mm 3 mps 757 mmHg 46%
11:00 +26°C° 0 mm 3 mps 757 mmHg 40%
12:00 +27°C° 0 mm 3 mps 757 mmHg 39%
13:00 +27°C° 0 mm 3 mps 757 mmHg 37%
14:00 +28°C° 0 mm 3 mps 756 mmHg 36%
15:00 +27°C° 0 mm 3 mps 756 mmHg 39%
16:00 +26°C° 0 mm 3 mps 756 mmHg 43%
17:00 +25°C° 0 mm 2 mps 755 mmHg 46%
18:00 +24°C° 0 mm 2 mps 756 mmHg 53%
19:00 +21°C° 0 mm 2 mps 756 mmHg 61%
20:00 +20°C° 0 mm 2 mps 756 mmHg 68%
21:00 +20°C° 0 mm 2 mps 756 mmHg 72%
22:00 +19°C° 0 mm 2 mps 756 mmHg 76%
23:00 +19°C° 0 mm 2 mps 756 mmHg 80%

26 September, Saturday

Time Temperature Precipitation Wind Pressure Humidity
00:00 +20°C° 0 mm 1 mps 756 mmHg 82%
01:00 +19°C° 0 mm 1 mps 756 mmHg 84%
02:00 +19°C° 0 mm 1 mps 755 mmHg 86%
03:00 +19°C° 0 mm 1 mps 755 mmHg 86%
04:00 +18°C° 0 mm 2 mps 755 mmHg 86%
05:00 +18°C° 0 mm 2 mps 755 mmHg 86%
06:00 +19°C° 0 mm 2 mps 755 mmHg 81%
07:00 +20°C° 0 mm 3 mps 755 mmHg 76%
08:00 +21°C° 0 mm 3 mps 755 mmHg 71%
09:00 +24°C° 0 mm 3 mps 755 mmHg 63%
10:00 +25°C° 0 mm 4 mps 755 mmHg 55%
11:00 +27°C° 0 mm 5 mps 755 mmHg 47%
12:00 +27°C° 0 mm 5 mps 755 mmHg 46%
13:00 +27°C° 0 mm 5 mps 755 mmHg 46%
14:00 +27°C° 0 mm 6 mps 754 mmHg 45%
15:00 +26°C° 0 mm 5 mps 754 mmHg 50%
16:00 +25°C° 0 mm 5 mps 754 mmHg 55%
17:00 +23°C° 0 mm 5 mps 754 mmHg 61%
18:00 +22°C° 0 mm 5 mps 754 mmHg 68%
19:00 +21°C° 0 mm 4 mps 754 mmHg 76%
20:00 +20°C° 0 mm 4 mps 755 mmHg 83%
21:00 +20°C° 0 mm 4 mps 755 mmHg 83%
22:00 +20°C° 0 mm 5 mps 754 mmHg 83%
23:00 +20°C° 0 mm 5 mps 754 mmHg 83%
Show more